Weather History for Santiago, Dominican Republic

Change the Weather History Date:

Wednesday, January 22, 2014

  Actual Average Record
Temperature  
Mean Temperature 74 °F -  
Max Temperature 87 °F 85 °F 87 °F (1998)
Min Temperature 62 °F 65 °F 59 °F (2005)
Cooling Degree Days 10    
Growing Degree Days 24 (Base 50)    
Moisture  
Dew Point 65 °F    
Average Humidity 71    
Maximum Humidity 100    
Minimum Humidity 34    
Precipitation  
Precipitation 0.00 in 0.06 in - ()
Sea Level Pressure  
Sea Level Pressure 29.99 in    
Wind  
Wind Speed 4 mph ()    
Max Wind Speed 12 mph    
Max Gust Speed -    
Visibility 5.9 miles    
Events      
Averages and records for this station are not official NWS values.
T = Trace of Precipitation, MM = Missing Value Source: Averaged Metar Reports

Daily Weather History Graph

Daily Weather History Graph

Search for Another Location

Airport:

Trip Planner

Search our weather history database for the weather conditions in past years. The results will help you decide how hot, cold, wet, or windy it might be!

Date:

Astronomy

Jan. 22, 2014 Rise Set
Actual Time 7:19 AM AST 6:29 PM AST
Civil Twilight 6:55 AM AST 6:52 PM AST
Nautical Twilight 6:29 AM AST 7:19 PM AST
Astronomical Twilight 6:02 AM AST 7:45 PM AST
Moon No Moon Rise 11:12 AM AST (1/22)
Length of Visible Light 11h 56m
Length of Day
11h 10m
Waning Gibbous, 66% of the Moon is Illuminated
Jan 22
Waning Gibbous
Jan 24
Last Quarter
Jan 30
New
Feb 6
First Quarter
Feb 14
Full

Hourly Weather History & Observations

Time (AST) Temp. Heat Index Dew Point Humidity Pressure Visibility Wind Dir Wind Speed Gust Speed Precip Events Conditions
12:00 AM - - - N/A% - 6.2 mi ESE 5.8 mph - N/A   Scattered Clouds
1:00 AM 68.0 °F - 64.4 °F 88% 29.98 in 6.2 mi Calm Calm - N/A   Partly Cloudy
2:00 AM 66.2 °F - 64.4 °F 94% 29.98 in 6.2 mi Calm Calm - N/A   Partly Cloudy
3:00 AM 66.2 °F - 64.4 °F 94% 29.95 in 6.2 mi Calm Calm - N/A   Partly Cloudy
4:00 AM 64.4 °F - 62.6 °F 94% 29.98 in 6.2 mi Calm Calm - N/A   Partly Cloudy
5:00 AM 64.4 °F - 62.6 °F 94% 29.95 in 6.2 mi Calm Calm - N/A   Partly Cloudy
6:00 AM - - - N/A% - 6.2 mi ESE 5.8 mph - N/A   Scattered Clouds
7:00 AM 62.6 °F - 62.6 °F 100% 29.98 in 6.2 mi Calm Calm - N/A   Scattered Clouds
8:00 AM 66.2 °F - 64.4 °F 94% 29.98 in 0.5 mi Calm Calm - N/A   Overcast
9:00 AM 69.8 °F - 69.8 °F 100% 30.01 in 2.2 mi SSE 5.8 mph - N/A   Scattered Clouds
10:00 AM 69.8 °F - 68.0 °F 94% 30.01 in 6.2 mi SSE 5.8 mph - N/A   Scattered Clouds
11:00 AM 75.2 °F - 66.2 °F 73% 30.04 in 6.2 mi ESE 11.5 mph - N/A   Scattered Clouds
12:00 PM 80.6 °F 83.2 °F 68.0 °F 65% 30.01 in 6.2 mi ESE 9.2 mph - N/A   Partly Cloudy
1:00 PM 82.4 °F 84.6 °F 66.2 °F 58% 29.98 in 6.2 mi SSE 6.9 mph - N/A   Partly Cloudy
2:00 PM 84 °F - 65 °F 44% 29.97 in 7 mi SSE 8.9 mph - -   Haze
2:00 PM 84.2 °F 86.6 °F 66.2 °F 55% 29.95 in 6.2 mi SSE 8.1 mph - N/A   Partly Cloudy
3:00 PM 86.0 °F 86.6 °F 62.6 °F 45% 29.95 in 6.2 mi ESE 8.1 mph - N/A   Partly Cloudy
4:00 PM 87.8 °F 87.1 °F 59.0 °F 38% 29.92 in 6.2 mi SE 8.1 mph - N/A   Partly Cloudy
5:00 PM 85 °F - 61 °F 34% 29.95 in 6 mi ENE 6.7 mph - -   Haze
5:00 PM 86.0 °F 86.1 °F 60.8 °F 43% 29.95 in 6.2 mi ENE 5.8 mph - N/A   Scattered Clouds
6:00 PM - - - N/A% - 6.2 mi North - - N/A   Scattered Clouds
7:00 PM 78.8 °F - 64.4 °F 61% 29.98 in 6.2 mi NE 5.8 mph - N/A   Scattered Clouds
8:00 PM 77 °F - 66 °F 60% 30.03 in 6 mi West 4.5 mph - -   Haze
8:00 PM 77.0 °F - 66.2 °F 69% 30.01 in 6.2 mi West 4.6 mph - N/A   Mostly Cloudy
9:00 PM 75.2 °F - 66.2 °F 73% 30.04 in 6.2 mi West 4.6 mph - N/A   Mostly Cloudy
10:00 PM 75.2 °F - 68.0 °F 78% 30.06 in 6.2 mi South 3.5 mph - N/A   Scattered Clouds
11:00 PM 76 °F - 67 °F 65% 30.08 in 6 mi SE 6.7 mph - -   Haze
11:00 PM 75.2 °F - 66.2 °F 73% 30.06 in 6.2 mi SE 5.8 mph - N/A   Scattered Clouds